Date String (YYYY-MM-DD hh:mm:ss) UTC,Instrument flags,Ambient pressure (hPa),Sample flow (lpm),Bypass flow (lpm),Sample temperature (°C),Ambient temperature (°C),ASC tube jacket temperature (°C),LED temperature (°C),Box temperature (°C),Sample RH (%),Span deviation,Mass concentration (μg/m³),Mass concentration (μg/m³),Mass concentration (μg/m³)
DateTimeUTC,F1_M11,P_M11,Q1_M11,Q2_M11,T1_M11,T2_M11,T3_M11,T4_M11,T5_M11,U1_M11,ZSPAN_M11,X0_M11,X2_M11,X1_M11
2022-04-05 23:00:00,,0816.3,5.00,0.00,24.2,23.4,00.0,33.3,25.9,09.7,0000.0,0015.00,0003.26,0001.09
2022-04-05 23:01:00,,0816.3,4.99,0.00,24.2,23.3,00.0,33.3,25.9,09.8,0000.0,0016.09,0003.30,0001.08
2022-04-05 23:02:00,,0816.3,4.99,0.00,24.2,23.3,00.0,33.3,25.9,09.6,0000.0,0016.99,0003.32,0001.07
2022-04-05 23:03:00,,0816.3,5.01,0.00,24.2,23.3,00.0,33.3,25.8,09.7,0000.0,0017.77,0003.37,0001.09
2022-04-05 23:04:00,,0816.3,5.00,0.00,24.2,23.3,00.0,33.2,25.7,09.8,0000.0,0018.29,0003.38,0001.09
2022-04-05 23:05:00,,0816.4,4.99,0.00,24.2,23.3,00.0,33.2,25.8,09.7,0000.0,0018.36,0003.35,0001.08
2022-04-05 23:06:00,,0816.5,5.00,0.00,24.2,23.3,00.0,33.2,25.9,09.8,0000.0,0018.84,0003.41,0001.10
2022-04-05 23:07:00,,0816.5,4.99,0.00,24.2,23.3,00.0,33.2,25.9,09.6,0000.0,0018.04,0003.37,0001.11
2022-04-05 23:08:00,,0816.5,5.01,0.00,24.2,23.2,00.0,33.2,25.7,09.5,0000.0,0016.50,0003.32,0001.10
2022-04-05 23:09:00,,0816.4,5.00,0.00,24.2,23.2,00.0,33.2,25.9,09.5,0000.0,0014.85,0003.29,0001.11
2022-04-05 23:10:00,,0816.5,4.99,0.00,24.2,23.1,00.0,33.2,25.8,09.5,0000.0,0014.70,0003.26,0001.11
2022-04-05 23:11:00,,0816.4,5.01,0.00,24.2,23.1,00.0,33.2,25.8,09.3,0000.0,0015.91,0003.22,0001.11
2022-04-05 23:12:00,,0816.4,5.00,0.00,24.2,23.1,00.0,33.2,25.8,09.4,0000.0,0015.59,0003.17,0001.11
2022-04-05 23:13:00,,0816.5,4.99,0.00,24.2,23.2,00.0,33.2,25.8,09.4,0000.0,0014.56,0003.16,0001.12
2022-04-05 23:14:00,,0816.5,5.02,0.00,24.2,23.2,00.0,33.2,25.8,09.2,0000.0,0013.99,0003.18,0001.12
2022-04-05 23:15:00,,0816.4,5.00,0.00,24.2,23.2,00.0,33.2,25.9,09.1,0000.0,0013.84,0003.15,0001.12
2022-04-05 23:16:00,,0816.6,5.00,0.00,24.2,23.2,00.0,33.2,25.9,09.1,0000.0,0013.91,0003.17,0001.14
2022-04-05 23:17:00,,0816.5,5.00,0.00,24.2,23.2,00.0,33.2,25.8,09.1,0000.0,0013.98,0003.15,0001.14
2022-04-05 23:18:00,,0816.4,4.99,0.00,24.2,23.2,00.0,33.2,25.8,09.2,0000.0,0013.62,0003.15,0001.14
2022-04-05 23:19:00,,0816.4,4.99,0.00,24.2,23.2,00.0,33.2,25.9,09.1,0000.0,0013.50,0003.18,0001.14
2022-04-05 23:20:00,,0816.5,5.00,0.00,24.2,23.3,00.0,33.2,25.9,08.9,0000.0,0013.35,0003.19,0001.13
2022-04-05 23:21:00,,0816.5,5.01,0.00,24.2,23.3,00.0,33.2,25.9,08.9,0000.0,0012.48,0003.16,0001.14
2022-04-05 23:22:00,,0816.7,5.00,0.00,24.2,23.2,00.0,33.2,25.9,09.0,0000.0,0011.33,0003.19,0001.15
2022-04-05 23:23:00,,0816.6,4.99,0.00,24.2,23.1,00.0,33.2,25.9,08.5,0000.0,0010.59,0003.18,0001.15
2022-04-05 23:24:00,,0816.6,5.00,0.00,24.2,23.1,00.0,33.2,25.9,08.3,0000.0,0011.51,0003.20,0001.17
2022-04-05 23:25:00,,0816.7,5.01,0.00,24.2,23.1,00.0,33.2,25.9,08.4,0000.0,0012.23,0003.21,0001.17
2022-04-05 23:26:00,,0816.7,5.00,0.00,24.2,23.2,00.0,33.2,25.8,08.5,0000.0,0012.69,0003.21,0001.17
2022-04-05 23:27:00,,0816.7,5.00,0.00,24.2,23.2,00.0,33.2,25.7,08.5,0000.0,0012.99,0003.23,0001.16
2022-04-05 23:28:00,,0816.7,4.99,0.00,24.2,23.1,00.0,33.2,25.8,08.5,0000.0,0012.67,0003.17,0001.15
2022-04-05 23:29:00,,0816.7,5.02,0.00,24.2,23.1,00.0,33.2,25.8,08.6,0000.0,0012.67,0003.15,0001.14
2022-04-05 23:30:00,,0816.7,4.99,0.00,24.2,23.2,00.0,33.2,25.8,08.6,0000.0,0012.63,0003.09,0001.14
2022-04-05 23:31:00,,0816.5,4.99,0.00,24.2,23.2,00.0,33.2,25.9,08.6,0000.0,0013.73,0003.10,0001.14
2022-04-05 23:32:00,,0816.4,4.99,0.00,24.2,23.2,00.0,33.2,25.9,08.4,0000.0,0014.17,0003.14,0001.13
2022-04-05 23:33:00,,0816.5,5.01,0.00,24.2,23.2,00.0,33.2,25.9,08.3,0000.0,0014.26,0003.18,0001.13
2022-04-05 23:34:00,,0816.6,5.00,0.00,24.2,23.2,00.0,33.2,25.8,08.2,0000.0,0015.46,0003.19,0001.13
2022-04-05 23:35:00,,0816.7,4.99,0.00,24.2,23.1,00.0,33.2,25.7,08.2,0000.0,0015.63,0003.18,0001.12
2022-04-05 23:36:00,,0816.7,5.01,0.00,24.2,23.1,00.0,33.2,25.7,08.1,0000.0,0015.15,0003.14,0001.11
2022-04-05 23:37:00,,0816.8,5.00,0.00,24.2,23.1,00.0,33.2,25.8,08.2,0000.0,0014.54,0003.13,0001.11
2022-04-05 23:38:00,,0816.8,4.99,0.00,24.1,23.0,00.0,33.2,25.9,08.2,0000.0,0014.36,0003.12,0001.11
2022-04-05 23:39:00,,0816.8,5.00,0.00,24.1,23.0,00.0,33.2,25.9,08.3,0000.0,0014.81,0003.17,0001.11
2022-04-05 23:40:00,,0816.8,5.01,0.00,24.1,23.0,00.0,33.2,25.8,08.4,0000.0,0015.47,0003.17,0001.10
2022-04-05 23:41:00,,0816.6,4.99,0.00,24.1,23.0,00.0,33.2,25.9,08.1,0000.0,0015.72,0003.19,0001.10
2022-04-05 23:42:00,,0816.6,5.01,0.00,24.1,23.0,00.0,33.2,26.0,07.7,0000.0,0015.43,0003.17,0001.11
2022-04-05 23:43:00,,0816.6,5.01,0.00,24.1,23.0,00.0,33.2,25.9,07.7,0000.0,0015.97,0003.17,0001.10
2022-04-05 23:44:00,,0816.5,4.99,0.00,24.1,23.0,00.0,33.2,25.9,07.6,0000.0,0016.48,0003.18,0001.09
2022-04-05 23:45:00,,0816.5,5.01,0.00,24.1,23.0,00.0,33.2,25.9,07.4,0000.0,0016.15,0003.18,0001.09
2022-04-05 23:46:00,,0816.6,5.01,0.00,24.1,23.0,00.0,33.1,25.9,07.5,0000.0,0015.61,0003.20,0001.08
2022-04-05 23:47:00,,0816.7,4.99,0.00,24.1,22.9,00.0,33.1,25.9,07.5,0000.0,0014.86,0003.20,0001.08
2022-04-05 23:48:00,,0816.8,4.99,0.00,24.1,22.9,00.0,33.1,25.9,07.5,0000.0,0015.72,0003.28,0001.09
2022-04-05 23:49:00,,0816.6,5.00,0.00,24.0,22.9,00.0,33.1,25.8,07.4,0000.0,0016.26,0003.31,0001.10
2022-04-05 23:50:00,,0816.8,5.01,0.00,24.0,22.9,00.0,33.1,25.7,07.5,0000.0,0016.80,0003.29,0001.08
2022-04-05 23:51:00,,0817.1,5.00,0.00,24.0,22.9,00.0,33.1,25.7,07.4,0000.0,0015.90,0003.30,0001.08
2022-04-05 23:52:00,,0817.1,5.00,0.00,24.0,22.9,00.0,33.1,25.7,07.5,0000.0,0016.16,0003.32,0001.09
2022-04-05 23:53:00,,0817.0,4.99,0.00,24.0,22.9,00.0,33.1,25.7,07.5,0000.0,0015.42,0003.31,0001.07
2022-04-05 23:54:00,,0817.1,5.00,0.00,23.9,22.8,00.0,33.0,25.5,07.7,0000.0,0016.33,0003.36,0001.08
2022-04-05 23:55:00,,0817.1,5.01,0.00,23.9,22.7,00.0,33.0,25.5,07.6,0000.0,0016.26,0003.32,0001.08
2022-04-05 23:56:00,,0817.1,5.00,0.00,23.9,22.7,00.0,33.0,25.6,07.4,0000.0,0015.97,0003.26,0001.08
2022-04-05 23:57:00,,0817.2,4.99,0.00,23.9,22.8,00.0,33.0,25.5,07.4,0000.0,0015.84,0003.23,0001.07
2022-04-05 23:58:00,,0817.2,4.99,0.00,23.9,22.7,00.0,33.0,25.5,07.5,0000.0,0015.68,0003.17,0001.07
2022-04-05 23:59:00,,0817.3,5.01,0.00,23.9,22.7,00.0,33.0,25.5,07.5,0000.0,0015.07,0003.11,0001.07
